[[{"header":{"parameterUnit":"m.s-1","parameterCategory":1,"la1":30.2991,"la2":30.254,"lo1":-89.0895,"lo2":-89.0444,"dy":0.0017,"dx":0.0017,"nx":28,"ny":28,"refTime":"2025-04-25T09:00:00:Z","depth":0,"parameterNumber":2,"parameterNumberName":"U-component_of_WINDS"},"data":[0,0,0,0,0,0,0,0,0,0,0,0,0,0,0,0,0,0,0,0,0,0,0,0,0,0,0,0,0,0,0,0,0,0,0,0,0,0,0,0,0,0,0,0,0,0,0,0,0,0,0,0,0,0,0,0,0,0,-3.0168,-3.017,0,-3.0339,-3.0341,-3.0343,-3.0381,-3.038,-3.0379,-3.0377,-3.0555,-3.056,-3.0566,0,0,0,0,0,0,0,0,0,0,0,0,0,-2.9876,-2.9881,-3.0168,-3.017,-3.0172,-3.0339,-3.0341,-3.0344,-3.0381,-3.038,-3.0378,-3.0377,-3.0553,-3.056,-3.0567,0,0,0,0,0,0,0,0,0,0,0,0,0,-3.002,-2.9883,-3.0167,-3.0211,-3.0216,-3.0339,-3.0341,-3.0344,-3.0382,-3.038,-3.0378,-3.0376,-3.055,-3.0559,-3.0568,-3.0659,0,0,-3.0594,-3.0598,0,0,0,0,0,0,0,0,-3.0012,-3.0031,-3.0202,-3.0208,-3.0215,-3.0337,-3.0303,-3.045,-3.0382,-3.0319,-3.0377,-3.0375,-3.0484,-3.0498,-3.0534,-3.0667,-3.0675,-3.0595,-3.0601,-3.0604,-3.0607,0,0,0,0,0,0,0,-3.0002,-3.0024,-3.0236,-3.0205,-3.0212,-3.0223,-3.0241,-3.0331,-3.041,-3.0324,-3.0327,-3.0347,-3.0487,-3.0526,-3.0539,-3.0677,-3.0595,-3.0603,-3.0608,-3.0612,-3.0896,-3.0898,0,0,0,0,0,0,-2.9984,-3.0015,-3.023,-3.0241,-3.0107,-3.023,-3.025,-3.03,-3.0409,-3.0424,-3.0349,-3.0348,-3.0511,-3.0528,-3.0545,-3.066,-3.0604,-3.0612,-3.0618,-3.0894,-3.0896,-3.0899,0,0,0,0,0,0,-2.9978,-3.0003,-3.0223,-3.0129,-3.0158,-3.0237,-3.0292,-3.0304,-3.0343,-3.0427,-3.0441,-3.0374,-3.0511,-3.0533,-3.0631,-3.0666,-3.0616,-3.0624,-3.0891,-3.0894,-3.0898,-3.0889,0,0,0,0,0,0,-2.9969,-3.0,-3.0035,-3.013,-3.0163,-3.0305,-3.0294,-3.0309,-3.0358,-3.0359,-3.0454,-3.0469,-3.0511,-3.0617,-3.0639,-3.0678,-3.0631,-3.0888,-3.0892,-3.0896,-3.0887,-3.0892,-3.0897,0,0,0,0,0,-2.9959,-3.0026,-3.0037,-3.0062,-3.0208,-3.0307,-3.0326,-3.0373,-3.036,-3.0396,-3.0451,-3.0465,-3.0659,-3.0627,-3.0652,-3.0694,-3.0886,-3.0891,-3.0896,-3.0885,-3.0891,-3.0896,0,0,0,0,0,0,-2.9934,-3.0039,-3.0052,-3.0152,-3.022,-3.0313,-3.036,-3.0378,-3.0452,-3.045,-3.0506,-3.0527,-3.0622,-3.0668,-3.063,-3.0789,-3.0772,-3.0783,-3.0755,-3.0762,-3.0766,-3.0753,-3.0639,0,0,0,0,0,-2.994,-3.0011,-3.01,-3.0179,-3.0213,-3.0281,-3.0326,-3.0356,-3.0429,-3.0458,-3.052,-3.0591,-3.0668,-3.0718,-3.0793,-3.0894,-3.0916,-3.0935,-3.094,-3.0944,-3.0952,-3.101,-3.1019,-3.0916,-3.0916,-3.0915,0,0,-2.9954,-3.002,-3.0061,-3.0176,-3.0233,-3.0306,-3.0305,-3.0382,-3.0437,-3.047,-3.0566,-3.0614,-3.0698,-3.0798,-3.0845,-3.0839,-3.0986,-3.095,-3.0953,-3.0959,-3.1016,-3.1026,-3.1034,-3.0919,-3.0918,-3.0918,0,0,-3.0015,-3.0072,-3.0145,-3.0202,-3.0288,-3.0333,-3.035,-3.0441,-3.0474,-3.0571,-3.0598,-3.0665,-3.0797,-3.0855,-3.0902,-3.0988,-3.1004,-3.1011,-3.1036,-3.1092,-3.11,-3.1108,-3.1139,-3.1149,-3.1019,-3.1019,-3.1019,0,-3.0021,-3.0132,-3.0181,-3.0257,-3.0307,-3.0341,-3.0416,-3.0469,-3.0575,-3.0609,-3.0601,-3.0767,-3.0826,-3.094,-3.0961,-3.0998,-3.1021,-3.1,-3.1095,-3.1103,-3.1111,-3.1141,-3.1152,-3.1019,-3.1019,-3.1019,-3.1019,0,-3.0135,-3.0212,-3.026,-3.0361,-3.0417,-3.0493,-3.0554,-3.0605,-3.0631,-3.0677,-3.0777,-3.0848,-3.0939,-3.0969,-3.0995,-3.1088,-3.1082,-3.1084,-3.1068,-3.112,-3.1149,-3.1161,-3.102,-3.102,-3.102,-3.1019,0,0,-3.0184,-3.0313,-3.033,-3.0376,-3.0474,-3.0535,-3.0613,-3.0701,-3.0744,-3.0817,-3.0884,-3.0995,-3.0998,-3.1051,-3.1085,-3.1133,-3.1197,-3.113,-3.1133,-3.114,-3.1305,-3.1302,-3.1314,-3.121,-3.1212,-3.1214,-3.1298,0,-3.0258,-3.0396,-3.0443,-3.0558,-3.063,-3.0664,-3.0732,-3.08,-3.0846,-3.0914,-3.0965,-3.1043,-3.1041,-3.1073,-3.1123,-3.1179,-3.1231,-3.1174,-3.1273,-3.1276,-3.125,-3.133,-3.1327,-3.1402,-3.1309,-3.1311,-3.1313,0,-3.0361,-3.0435,-3.0557,-3.0647,-3.0679,-3.0739,-3.0824,-3.0889,-3.0968,-3.0998,-3.1058,-3.1088,-3.1172,-3.1152,-3.1269,-3.1228,-3.1272,-3.1306,-3.131,-3.132,-3.1296,-3.1342,-3.1428,-3.1439,-3.1331,-3.133,-3.1328,0,-3.0385,-3.0515,-3.0605,-3.0644,-3.0751,-3.0793,-3.0839,-3.0916,-3.0967,-3.1042,-3.1076,-3.116,-3.1206,-3.1272,-3.1324,-3.1305,-3.1437,-3.1421,-3.1464,-3.1463,-3.1489,-3.1487,-3.1583,-3.1518,-3.1518,-3.1518,-3.1518,0,-3.0462,-3.0535,-3.0617,-3.0672,-3.0756,-3.0811,-3.0892,-3.0941,-3.1009,-3.1076,-3.1111,-3.1172,-3.1239,-3.1309,-3.1352,-3.1442,-3.1463,-3.149,-3.15,-3.1486,-3.1483,-3.1515,-3.1511,-3.1521,-3.152,-3.152,-3.1519,0,-3.0501,-3.056,-3.066,-3.0753,-3.0779,-3.0836,-3.0917,-3.0972,-3.102,-3.1104,-3.1126,-3.1202,-3.1287,-3.1346,-3.1456,-3.1484,-3.1582,-3.1592,-3.1555,-3.156,-3.1599,-3.1595,-3.1719,-3.1738,-3.1661,-3.1661,-3.1662,0,-3.0546,-3.0603,-3.0703,-3.0749,-3.0796,-3.0871,-3.0923,-3.0979,-3.1032,-3.1127,-3.1171,-3.1259,-3.1332,-3.1466,-3.1531,-3.1616,-3.1628,-3.1666,-3.1641,-3.1625,-3.1628,-3.1624,-3.163,-3.1669,-3.1669,-3.167,-3.167,0,-3.0619,-3.0646,-3.0719,-3.0802,-3.0863,-3.0932,-3.1002,-3.1038,-3.1107,-3.1165,-3.1252,-3.1309,-3.1421,-3.1508,-3.1599,-3.1648,-3.1671,-3.1678,-3.1692,-3.1679,-3.1655,-3.1668,-3.1565,-3.1674,-3.1674,-3.1674,-3.1674,-3.1673,-3.0663,-3.0716,-3.0794,-3.0875,-3.0933,-3.0997,-3.1054,-3.1109,-3.1183,-3.1278,-3.1307,-3.1398,-3.1477,-3.1601,-3.1652,-3.1725,-3.1722,-3.1743,-3.1748,-3.1753,-3.1752,-3.1644,-3.1742,-3.1742,-3.1742,-3.1742,-3.1742,0,-3.0738,-3.0791,-3.0864,-3.096,-3.1024,-3.104,-3.1118,-3.117,-3.125,-3.1321,-3.1392,-3.1493,-3.1578,-3.165,-3.1738,-3.1782,-3.1795,-3.1803,-3.18,-3.1812,-3.1749,-3.1728,-3.1792,-3.1792,-3.1791,-3.1791,-3.1791,-3.1791,-3.0785,-3.0875,-3.091,-3.103,-3.1083,-3.1171,-3.1214,-3.1274,-3.1332,-3.1442,-3.1513,-3.1559,-3.1631,-3.1725,-3.1804,-3.1823,-3.1854,-3.186,-3.1881,-3.1822,-3.1816,-3.181,-3.179,-3.1866,-3.1866,-3.1938,-3.1938,-3.1939]},{"header":{"parameterUnit":"m.s-1","parameterCategory":1,"la1":30.2991,"la2":30.254,"lo1":-89.0895,"lo2":-89.0444,"dy":0.0017,"dx":0.0017,"nx":28,"ny":28,"refTime":"2025-04-25T09:00:00:Z","depth":0,"parameterNumber":3,"parameterNumberName":"V-component_of_WINDS"},"data":[0,0,0,0,0,0,0,0,0,0,0,0,0,0,0,0,0,0,0,0,0,0,0,0,0,0,0,0,0,0,0,0,0,0,0,0,0,0,0,0,0,0,0,0,0,0,0,0,0,0,0,0,0,0,0,0,0,0,4.3142,4.3143,0,4.3209,4.321,4.3211,4.3187,4.3186,4.3184,4.3183,4.325,4.3253,4.3256,0,0,0,0,0,0,0,0,0,0,0,0,0,4.2992,4.2995,4.3142,4.3143,4.3143,4.3209,4.321,4.3211,4.3188,4.3186,4.3184,4.3182,4.3249,4.3253,4.3256,0,0,0,0,0,0,0,0,0,0,0,0,0,4.3058,4.2996,4.3142,4.314,4.314,4.3209,4.321,4.3211,4.3188,4.3186,4.3184,4.3182,4.3248,4.3252,4.3257,4.3331,0,0,4.3271,4.3274,0,0,0,0,0,0,0,0,4.3054,4.3063,4.3139,4.314,4.3141,4.3188,4.3182,4.3251,4.3189,4.317,4.3183,4.318,4.3231,4.3237,4.3254,4.3334,4.3337,4.3272,4.3275,4.3277,4.3278,0,0,0,0,0,0,0,4.305,4.306,4.3168,4.314,4.3141,4.3135,4.3142,4.3195,4.3212,4.3171,4.317,4.3178,4.3231,4.325,4.3256,4.3338,4.3272,4.3276,4.3279,4.3281,4.3482,4.3484,0,0,0,0,0,0,4.3045,4.3057,4.3166,4.317,4.3091,4.314,4.3148,4.3175,4.3211,4.3215,4.318,4.3177,4.3243,4.325,4.3258,4.3347,4.3277,4.3281,4.3284,4.348,4.3483,4.3485,0,0,0,0,0,0,4.3042,4.3055,4.3164,4.3113,4.3127,4.3145,4.3176,4.3177,4.3196,4.3218,4.3221,4.3196,4.3241,4.3251,4.3313,4.3349,4.3283,4.3288,4.3477,4.348,4.3484,4.3525,0,0,0,0,0,0,4.3037,4.3054,4.3082,4.3114,4.3129,4.3218,4.3178,4.318,4.3205,4.3201,4.3234,4.3237,4.324,4.3306,4.3318,4.3354,4.3291,4.3473,4.3478,4.3483,4.3521,4.353,4.3538,0,0,0,0,0,4.3032,4.309,4.3084,4.3097,4.3165,4.322,4.3229,4.3232,4.3208,4.3236,4.325,4.3236,4.3344,4.3313,4.3326,4.3364,4.3471,4.3477,4.3482,4.3517,4.3528,4.3538,0,0,0,0,0,0,4.3061,4.3095,4.3087,4.3158,4.3187,4.3216,4.3252,4.3244,4.3279,4.3274,4.3276,4.3283,4.3347,4.3362,4.3327,4.3438,4.3404,4.3412,4.3426,4.3436,4.3445,4.3439,4.3295,0,0,0,0,0,4.3076,4.3118,4.3145,4.3205,4.3219,4.3234,4.3257,4.3258,4.3287,4.3298,4.3317,4.3346,4.3386,4.3412,4.345,4.3523,4.353,4.3556,4.3565,4.3572,4.3579,4.3619,4.3631,4.3504,4.3504,4.3504,0,0,4.3106,4.313,4.3156,4.3211,4.3233,4.3276,4.3244,4.3291,4.3323,4.3305,4.3365,4.338,4.3412,4.348,4.3511,4.3494,4.3616,4.3579,4.3584,4.3587,4.3626,4.3638,4.3648,4.3508,4.3507,4.3506,0,0,4.3184,4.3206,4.3259,4.3282,4.3316,4.3326,4.3338,4.337,4.3379,4.344,4.3428,4.3466,4.3535,4.3559,4.3579,4.3668,4.3656,4.3681,4.3725,4.3764,4.3774,4.3783,4.3814,4.3825,4.3688,4.3688,4.3688,0,4.3217,4.3283,4.3286,4.3335,4.3359,4.3347,4.34,4.3422,4.3467,4.3484,4.3465,4.3553,4.3573,4.3647,4.3669,4.3686,4.37,4.3676,4.3772,4.3781,4.3789,4.3819,4.3831,4.3691,4.369,4.369,4.369,0,4.3322,4.3367,4.3405,4.345,4.3479,4.3529,4.3541,4.3569,4.3568,4.3579,4.3641,4.3666,4.3709,4.3727,4.3725,4.38,4.3789,4.3771,4.3737,4.3804,4.3832,4.3843,4.3694,4.3693,4.3693,4.3692,0,0,4.3418,4.3465,4.3479,4.3499,4.3537,4.3573,4.3623,4.3666,4.3691,4.3723,4.3764,4.3824,4.3809,4.3832,4.3833,4.3868,4.3937,4.3846,4.3847,4.3862,4.4021,4.4033,4.4046,4.393,4.3932,4.3934,4.4018,0,4.3498,4.3586,4.3592,4.3672,4.3714,4.3704,4.3748,4.3776,4.3788,4.3826,4.3839,4.3881,4.3858,4.3872,4.3906,4.3921,4.3968,4.3915,4.3968,4.397,4.3959,4.4061,4.4074,4.4152,4.4029,4.4031,4.4032,0,4.3603,4.3639,4.3724,4.3756,4.3774,4.3814,4.3854,4.389,4.3922,4.3928,4.3956,4.3953,4.4004,4.3969,4.404,4.4004,4.4026,4.4037,4.404,4.4044,4.4004,4.4067,4.4177,4.4189,4.405,4.4048,4.4047,0,4.3664,4.3734,4.3793,4.3811,4.3851,4.3879,4.3897,4.3927,4.3953,4.3988,4.4005,4.4046,4.4068,4.41,4.4107,4.4081,4.4178,4.4144,4.4185,4.4184,4.4204,4.4202,4.4319,4.422,4.422,4.422,4.422,0,4.3752,4.3804,4.3821,4.3858,4.3916,4.3922,4.3979,4.3995,4.4022,4.4062,4.4056,4.4093,4.4101,4.414,4.4147,4.4204,4.4214,4.4221,4.4222,4.4221,4.422,4.4234,4.4229,4.4223,4.4222,4.4222,4.4221,0,4.3829,4.3843,4.3907,4.3941,4.395,4.3991,4.402,4.4055,4.4067,4.4117,4.4129,4.4148,4.4194,4.4205,4.4259,4.4264,4.4332,4.4328,4.4321,4.432,4.436,4.4356,4.4489,4.4507,4.4397,4.4398,4.4399,0,4.3884,4.3924,4.3962,4.3988,4.4008,4.405,4.4077,4.4085,4.4113,4.4154,4.4184,4.4229,4.4265,4.4338,4.4357,4.4398,4.4395,4.4439,4.4401,4.4399,4.4395,4.4392,4.4396,4.4445,4.4446,4.4447,4.4448,0,4.398,4.3985,4.4024,4.4067,4.4099,4.4132,4.4164,4.4186,4.4199,4.4231,4.4278,4.4306,4.4362,4.4407,4.4449,4.4467,4.446,4.446,4.4472,4.447,4.4465,4.4468,4.4339,4.4457,4.4456,4.4455,4.4455,4.4454,4.4047,4.4082,4.4115,4.4159,4.4184,4.4215,4.4249,4.4267,4.4306,4.4353,4.4355,4.4406,4.4438,4.4494,4.4515,4.4555,4.4541,4.4558,4.4562,4.4566,4.4569,4.446,4.4562,4.4562,4.4562,4.4562,4.4562,0,4.4142,4.4163,4.4204,4.4249,4.4284,4.4276,4.4311,4.434,4.4386,4.4416,4.4452,4.4507,4.455,4.4573,4.4616,4.4644,4.4642,4.4655,4.4652,4.4657,4.4579,4.4564,4.4656,4.4656,4.4656,4.4656,4.4656,4.4656,4.4196,4.4255,4.4264,4.4336,4.4356,4.4407,4.4428,4.4456,4.448,4.4541,4.4578,4.4593,4.462,4.4666,4.4706,4.4711,4.4727,4.4742,4.4746,4.4672,4.4662,4.4653,4.4639,4.4746,4.4746,4.482,4.4821,4.4821]}]]